Regional Weather Roundup
Issued by NWS Goodland, KS

Home | Current Version | Previous Version | Text Only | Print | Product List | Glossary Off
Versions: 1 2 3 4 5 6 7 8 9 10 11 12 13 14 15 16 17 18 19 20 21 22 23 24 25 26 27 28 29 30 31 32 33 34 35 36 37 38 39 40 41 42 43 44 45 46 47 48 49 50

000
ASUS43 KGLD 211859
RWRGLD

GOODLAND FORECAST AREA HOURLY WEATHER ROUNDUP
NATIONAL WEATHER SERVICE GOODLAND KS
100 PM MDT FRI JUL 21 2017

...OFFICIAL OBSERVATIONS...

CITY           SKY/WX    TMP DP  RH WIND       PRES   REMARKS
GOODLAND KS    SUNNY     98  63  31 SE10      29.96S HX 100
HILL CITY KS   SUNNY    105  57  20 S15G23    29.85F HX 104
IMPERIAL NEB   SUNNY     99  51  19 MISG      29.93F
MCCOOK NEB     SUNNY    102  69  34 VRB3      29.86F HX 109
AKRON CO       NOT AVBL
BURLINGTON CO  SUNNY     96  56  26 VRB5      30.01F
LIMON CO       SUNNY     89  51  27 CALM      30.12F
$$

...UNOFFICIAL OBSERVATIONS...

CITY           SKY/WX    TMP DP  RH WIND       PRES   REMARKS
LENORA KS        N/A     99  32   9 MISG        N/A
NORTON KS      SUNNY    100  54  20 S8        29.85F
SHARON SPRINGS   N/A     97  63  32 S8          N/A
TRENTON NEB      N/A    101  32   9 CALM        N/A
KIT CARSON CO    N/A     95  60  30 CALM        N/A
YUMA CO        FAIR      93  30  10 CALM      30.01F
$$




USA.gov is the U.S. government's official web portal to all federal, state and local government web resources and services.